Vorticity
11 8 2 10 5 18 11 1 -6 -0 -18 16 3 10 3 20 10 -20 -1 1 16 11
9 5 16 5 7 15 5 -2 9 15 9 1 4 7 6 31 -21 15 18 8 6 8
6 9 11 9 12 8 9 3 15 10 5 20 -1 4 -11 -1 -0 12 6 6 12 16
10 10 10 12 10 3 9 6 13 5 -4 -0 9 16 -14 1 16 10 17 10 16 11
12 12 11 12 22 15 4 3 9 0 -8 5 -3 28 43 13 -2 12 10 13 9 10
5 7 11 4 5 -3 6 11 7 19 -5 57 -37 19 12 1 17 11 11 8 8 6
10 12 8 13 5 2 4 2 -6 42 -16 37 12 11 -0 15 12 12 8 5 6 7
2 8 7 11 5 30 -15 37 -8 3 10 10 13 1 21 10 7 8 5 7 8 9
17 7 11 13 26 -16 7 -1 -5 26 5 -1 1 18 11 10 8 6 7 8 9 7
2 9 4 1 8 -26 10 17 20 24 7 4 25 8 14 6 5 7 7 7 7 7
9 10 6 -4 26 -2 17 25 -4 5 17 15 14 11 5 7 5 6 7 7 9 9
6 11 7 26 -0 24 3 1 20 15 9 10 6 7 5 6 6 6 6 9 9 9
10 5 19 16 14 2 16 13 9 10 5 4 4 6 5 6 6 6 8 7 7 9
0 16 11 10 13 13 10 9 4 3 4 5 7 7 7 9 8 10 8 8 11 14
Height
3129 3128 3126 3125 3126 3125 3125 3125 3124 3125 3122 3120 3117 3115 3113 3109 3106 3104 3099 3094 3090 3088
3123 3122 3122 3120 3119 3119 3119 3117 3117 3115 3115 3113 3110 3108 3103 3101 3099 3094 3090 3086 3083 3078
3117 3116 3115 3114 3113 3112 3112 3111 3109 3108 3107 3105 3101 3097 3096 3093 3088 3085 3081 3078 3072 3067
3110 3109 3107 3106 3106 3104 3104 3103 3102 3101 3100 3097 3094 3090 3086 3083 3080 3077 3072 3067 3063 3058
3105 3103 3101 3100 3098 3098 3097 3097 3096 3094 3092 3089 3086 3081 3079 3075 3071 3067 3062 3057 3053 3049
3099 3097 3095 3094 3092 3091 3091 3091 3089 3086 3084 3080 3074 3072 3070 3066 3062 3056 3052 3049 3044 3041
3091 3090 3089 3087 3086 3083 3083 3082 3081 3077 3074 3070 3067 3063 3060 3056 3051 3047 3043 3040 3036 3033
3084 3082 3081 3080 3078 3076 3074 3072 3070 3067 3064 3060 3057 3053 3049 3046 3042 3039 3035 3031 3027 3023
3077 3075 3073 3071 3070 3067 3066 3064 3062 3057 3053 3051 3048 3043 3041 3037 3034 3030 3026 3022 3018 3013
3068 3066 3064 3063 3063 3059 3057 3054 3051 3048 3045 3042 3039 3035 3032 3030 3024 3020 3015 3011 3007 3003
3060 3058 3058 3055 3052 3051 3048 3046 3044 3041 3037 3034 3031 3027 3023 3019 3014 3009 3005 3001 2996 2991
3052 3051 3049 3047 3045 3043 3041 3038 3035 3031 3029 3025 3022 3018 3013 3008 3003 2998 2994 2990 2984 2979
3045 3043 3041 3039 3037 3035 3033 3030 3026 3023 3020 3016 3012 3007 3003 2998 2990 2985 2981 2977 2971 2966
3038 3035 3033 3032 3030 3027 3025 3022 3019 3015 3012 3007 3002 2997 2992 2986 2977 2970 2964 2960 2957 2952